Time,TemperatureF,DewpointF,PressureIn,WindDirection,WindDirectionDegrees,WindSpeedMPH,WindSpeedGustMPH,Humidity,HourlyPrecipIn,Conditions,Clouds,dailyrainin,SoftwareType,DateUTC
2013-08-13 00:00:00,78.6,76.1,29.93,North,-999,0.0,0.0,92,0.00,,,-99.99,WeatherLink 5.6,2013-08-13 05:00:00,
2013-08-13 00:30:00,78.6,76.1,29.93,North,-999,0.0,0.0,92,0.00,,,-99.99,WeatherLink 5.6,2013-08-13 05:30:00,
2013-08-13 01:00:00,78.5,76.0,29.93,North,-999,0.0,0.0,92,0.00,,,-99.99,WeatherLink 5.6,2013-08-13 06:00:00,
2013-08-13 01:30:00,77.9,75.4,29.93,North,-999,0.0,0.0,92,0.00,,,-99.99,WeatherLink 5.6,2013-08-13 06:30:00,
2013-08-13 02:00:00,78.3,75.5,29.92,North,-999,0.0,0.0,91,0.00,,,-99.99,WeatherLink 5.6,2013-08-13 07:00:00,
2013-08-13 02:30:00,78.3,75.8,29.92,NNW,337,0.0,1.0,92,0.00,,,-99.99,WeatherLink 5.6,2013-08-13 07:30:00,
2013-08-13 03:00:00,77.9,75.4,29.91,North,-999,0.0,0.0,92,0.00,,,-99.99,WeatherLink 5.6,2013-08-13 08:00:00,
2013-08-13 03:30:00,77.7,75.5,29.91,North,-999,0.0,0.0,93,0.00,,,-99.99,WeatherLink 5.6,2013-08-13 08:30:00,
2013-08-13 04:00:00,77.6,75.4,29.90,North,-999,0.0,0.0,93,0.00,,,-99.99,WeatherLink 5.6,2013-08-13 09:00:00,
2013-08-13 04:30:00,77.7,75.5,29.90,North,-999,0.0,0.0,93,0.00,,,-99.99,WeatherLink 5.6,2013-08-13 09:30:00,
2013-08-13 05:00:00,77.6,75.7,29.89,North,-999,0.0,0.0,94,0.00,,,-99.99,WeatherLink 5.6,2013-08-13 10:00:00,
2013-08-13 05:30:00,79.2,77.0,29.90,WSW,247,1.0,9.0,93,0.00,,,-99.99,WeatherLink 5.6,2013-08-13 10:30:00,
2013-08-13 06:00:00,81.8,76.5,29.90,WSW,247,2.0,10.0,84,0.00,,,-99.99,WeatherLink 5.6,2013-08-13 11:00:00,
2013-08-13 06:30:00,80.7,76.8,29.91,West,270,0.0,5.0,88,0.00,,,-99.99,WeatherLink 5.6,2013-08-13 11:30:00,
2013-08-13 07:00:00,79.8,76.9,29.92,West,270,0.0,1.0,91,0.00,,,-99.99,WeatherLink 5.6,2013-08-13 12:00:00,
2013-08-13 07:30:00,80.3,77.4,29.92,West,270,0.0,2.0,91,0.00,,,-99.99,WeatherLink 5.6,2013-08-13 12:30:00,
2013-08-13 08:00:00,81.8,78.2,29.92,WNW,292,1.0,7.0,89,0.00,,,-99.99,WeatherLink 5.6,2013-08-13 13:00:00,
2013-08-13 08:30:00,84.0,78.3,29.92,WNW,292,2.0,9.0,83,0.00,,,-99.99,WeatherLink 5.6,2013-08-13 13:30:00,
2013-08-13 09:00:00,86.1,78.4,29.93,WNW,292,2.0,13.0,78,0.00,,,-99.99,WeatherLink 5.6,2013-08-13 14:00:00,
2013-08-13 09:30:00,87.0,78.5,29.92,WNW,292,4.0,13.0,76,0.00,,,-99.99,WeatherLink 5.6,2013-08-13 14:30:00,
2013-08-13 10:00:00,87.6,77.5,29.93,WNW,292,4.0,12.0,72,0.00,,,-99.99,WeatherLink 5.6,2013-08-13 15:00:00,
2013-08-13 10:30:00,89.0,76.2,29.94,West,270,5.0,14.0,66,0.00,,,-99.99,WeatherLink 5.6,2013-08-13 15:30:00,
2013-08-13 11:00:00,89.7,76.8,29.93,West,270,5.0,13.0,66,0.00,,,-99.99,WeatherLink 5.6,2013-08-13 16:00:00,
2013-08-13 11:30:00,91.6,76.2,29.93,West,270,4.0,13.0,61,0.00,,,-99.99,WeatherLink 5.6,2013-08-13 16:30:00,
2013-08-13 12:00:00,90.5,78.5,29.91,WSW,247,4.0,14.0,68,0.00,,,-99.99,WeatherLink 5.6,2013-08-13 17:00:00,
2013-08-13 12:30:00,91.0,77.6,29.90,SSW,202,6.0,14.0,65,0.00,,,-99.99,WeatherLink 5.6,2013-08-13 17:30:00,
2013-08-13 13:00:00,90.1,77.7,29.89,SSW,202,6.0,14.0,67,0.00,,,-99.99,WeatherLink 5.6,2013-08-13 18:00:00,
2013-08-13 13:30:00,91.4,75.6,29.87,SW,225,5.0,15.0,60,0.00,,,-99.99,WeatherLink 5.6,2013-08-13 18:30:00,
2013-08-13 14:00:00,91.6,77.2,29.86,SW,225,5.0,16.0,63,0.00,,,-99.99,WeatherLink 5.6,2013-08-13 19:00:00,
2013-08-13 14:30:00,91.6,78.6,29.86,SW,225,5.0,16.0,66,0.00,,,-99.99,WeatherLink 5.6,2013-08-13 19:30:00,
2013-08-13 15:00:00,87.8,77.2,29.88,West,270,4.0,15.0,71,0.00,,,-99.99,WeatherLink 5.6,2013-08-13 20:00:00,
2013-08-13 15:30:00,83.0,74.6,29.89,WSW,247,3.0,16.0,76,0.00,,,-99.99,WeatherLink 5.6,2013-08-13 20:30:00,
2013-08-13 16:00:00,79.0,74.1,29.88,NW,315,1.0,7.0,85,0.00,,,-99.99,WeatherLink 5.6,2013-08-13 21:00:00,
2013-08-13 16:30:00,78.1,73.9,29.88,NW,315,0.0,6.0,87,0.00,,,-99.99,WeatherLink 5.6,2013-08-13 21:30:00,
2013-08-13 17:00:00,77.7,73.9,29.87,North,-999,0.0,0.0,88,0.00,,,-99.99,WeatherLink 5.6,2013-08-13 22:00:00,
2013-08-13 17:30:00,77.6,74.4,29.89,North,-999,0.0,0.0,90,0.01,,,-99.99,WeatherLink 5.6,2013-08-13 22:30:00,
2013-08-13 18:00:00,77.2,74.7,29.91,NNE,22,0.0,1.0,92,0.02,,,-99.99,WeatherLink 5.6,2013-08-13 23:00:00,
2013-08-13 18:30:00,76.8,74.3,29.90,NW,315,0.0,6.0,92,0.01,,,-99.99,WeatherLink 5.6,2013-08-13 23:30:00,
2013-08-13 19:00:00,76.3,73.8,29.89,NW,315,0.0,4.0,92,0.00,,,-99.99,WeatherLink 5.6,2013-08-14 00:00:00,
2013-08-13 19:30:00,75.4,72.6,29.89,NW,315,1.0,5.0,91,0.00,,,-99.99,WeatherLink 5.6,2013-08-14 00:30:00,
2013-08-13 20:00:00,75.3,72.8,29.87,NE,45,0.0,5.0,92,0.00,,,-99.99,WeatherLink 5.6,2013-08-14 01:00:00,
2013-08-13 20:30:00,74.9,72.7,29.86,North,-999,0.0,0.0,93,0.00,,,-99.99,WeatherLink 5.6,2013-08-14 01:30:00,
2013-08-13 21:00:00,74.9,73.1,29.86,North,-999,0.0,0.0,94,0.00,,,-99.99,WeatherLink 5.6,2013-08-14 02:00:00,
2013-08-13 21:30:00,75.1,73.3,29.87,NNE,22,0.0,1.0,94,0.00,,,-99.99,WeatherLink 5.6,2013-08-14 02:30:00,
2013-08-13 22:00:00,75.3,73.5,29.89,North,0,0.0,2.0,94,0.00,,,-99.99,WeatherLink 5.6,2013-08-14 03:00:00,
2013-08-13 22:30:00,75.3,73.5,29.89,North,-999,0.0,0.0,94,0.00,,,-99.99,WeatherLink 5.6,2013-08-14 03:30:00,
2013-08-13 23:00:00,75.3,73.5,29.89,North,-999,0.0,0.0,94,0.00,,,-99.99,WeatherLink 5.6,2013-08-14 04:00:00,
2013-08-13 23:30:00,74.7,72.9,29.88,North,-999,0.0,0.0,94,0.00,,,-99.99,WeatherLink 5.6,2013-08-14 04:30:00,